Ketchikan, AK

4:38 PM AKST on December 12, 2018 (GMT -0900)
Ketchikan International

Weather History for PAKT - October, 2018

Change the Weather History Date:

Monday, October 1, 2018

  Actual Average Record
Temperature  
Mean Temperature 52 °F -  
Max Temperature 62 °F 56 °F 63 °F (1987)
Min Temperature 43 °F 44 °F 30 °F (2000)
Degree Days  
Heating Degree Days 12    
Growing Degree Days 2 (Base 50)    
Moisture  
Dew Point 30 °F    
Average Humidity 45    
Maximum Humidity 68    
Minimum Humidity 20    
Precipitation  
Precipitation 0.00 in - - ()
Sea Level Pressure  
Sea Level Pressure 29.95 in    
Wind  
Wind Speed 8 mph (NNW)    
Max Wind Speed 14 mph    
Max Gust Speed 23 mph    
Visibility 10 miles    
Events      
Averages and records for this station are not official NWS values.
T = Trace of Precipitation, MM = Missing Value Source: NWS Daily Summary

Daily Weather History Graph

Daily Weather History Graph

Search for Another Location

Airport or City:

Astronomy

Oct. 01, 2018 Rise Set
Actual Time 6:49 AM AKDT 6:21 PM AKDT
Civil Twilight 6:13 AM AKDT 6:58 PM AKDT
Nautical Twilight 5:30 AM AKDT 7:40 PM AKDT
Astronomical Twilight 4:46 AM AKDT 8:24 PM AKDT
Moon 10:20 PM AKDT (10/1) 2:27 PM AKDT (10/1)
Length of Visible Light 12h 44m
Length of Day
11h 31m
Waning Gibbous, 57% of the Moon is Illuminated
Oct 1
Waning Gibbous
Oct 2
Last Quarter
Oct 8
New
Oct 16
First Quarter
Oct 24
Full

Hourly Weather History & Observations

Time (AKDT) Temp. Windchill Dew Point Humidity Pressure Visibility Wind Dir Wind Speed Gust Speed Precip Events Conditions
12:53 AM 45.0 °F 40.1 °F 32.0 °F 60% 29.88 in 10.0 mi NW 9.2 mph - N/A   Clear
1:53 AM 44.1 °F 40.8 °F 34.0 °F 68% 29.89 in 10.0 mi NW 5.8 mph - N/A   Clear
2:53 AM 44.1 °F 40.1 °F 33.1 °F 65% 29.89 in 10.0 mi WNW 6.9 mph - N/A   Clear
3:53 AM 43.0 °F 39.5 °F 30.9 °F 62% 29.88 in 10.0 mi WNW 5.8 mph - N/A   Clear
4:53 AM 44.1 °F 40.1 °F 30.9 °F 60% 29.89 in 10.0 mi NW 6.9 mph - N/A   Clear
5:53 AM 44.1 °F 40.8 °F 30.9 °F 60% 29.91 in 10.0 mi NW 5.8 mph - N/A   Clear
6:08 AM 45.0 °F 41.8 °F 32.0 °F 60% 29.91 in 10.0 mi NW 5.8 mph - N/A   Clear
6:53 AM 46.4 °F 42.9 °F 32.0 °F 57% 29.92 in 10.0 mi NW 6.9 mph - N/A   Clear
7:53 AM 46.4 °F 42.4 °F 33.8 °F 62% 29.92 in 10.0 mi NW 8.1 mph - N/A   Clear
8:53 AM 51.8 °F - 33.8 °F 50% 29.91 in 10.0 mi NW 10.4 mph - N/A   Clear
9:53 AM 53.6 °F - 37.4 °F 54% 29.91 in 10.0 mi NW 9.2 mph - N/A   Clear
10:53 AM 57.2 °F - 30.2 °F 36% 29.91 in 10.0 mi NNW 10.4 mph - N/A   Clear
11:53 AM 57.2 °F - 33.8 °F 41% 29.91 in 10.0 mi NNW 12.7 mph - N/A   Clear
12:53 PM 59.0 °F - 33.8 °F 39% 29.90 in 10.0 mi NNW 13.8 mph - N/A   Clear
1:53 PM 59.0 °F - 35.6 °F 42% 29.90 in 10.0 mi North 13.8 mph - N/A   Clear
2:53 PM 60.8 °F - 33.8 °F 36% 29.91 in 10.0 mi NNW 9.2 mph - N/A   Clear
3:53 PM 61.0 °F - 30.9 °F 32% 29.91 in 10.0 mi Variable 5.8 mph - N/A   Clear
4:53 PM 62.6 °F - 21.2 °F 20% 29.92 in 10.0 mi NNW 12.7 mph 21.9 mph N/A   Clear
5:53 PM 60.8 °F - 23.0 °F 23% 29.96 in 10.0 mi Variable 5.8 mph 21.9 mph N/A   Clear
6:53 PM 57.2 °F - 23.0 °F 27% 30.00 in 10.0 mi NNE 8.1 mph 23.0 mph N/A   Clear
7:53 PM 55.4 °F - 23.0 °F 29% 30.03 in 10.0 mi NE 10.4 mph 19.6 mph N/A   Clear
8:53 PM 55.4 °F - 23.0 °F 29% 30.06 in 10.0 mi Variable 3.5 mph - N/A   Clear
9:53 PM 53.1 °F - 24.1 °F 32% 30.09 in 10.0 mi NNE 4.6 mph - N/A   Clear
10:53 PM 48.0 °F - 28.9 °F 48% 30.11 in 10.0 mi Variable 4.6 mph - N/A   Clear
11:53 PM 45.0 °F 43.5 °F 23.0 °F 42% 30.12 in 10.0 mi West 3.5 mph - N/A   Clear